This is the latest recevied weather packets stored in our database for station/object NK7E-1. If no packets are shown the sender has not sent any weather packets the latest 10 day(s).
| Time | Temp. | Humidity | Pressure | Rain* | Wind** | Luminosity | Snow |
|---|---|---|---|---|---|---|---|
| 1778005800 | 21.11° C | 52% | 1013.1 hPa | 0 mm | - | - | - |
| 1778005200 | 21.11° C | 52% | 1013.1 hPa | 0 mm | - | - | - |
| 1778004600 | 20° C | 55% | 1013.3 hPa | 0 mm | - | - | - |
| 1778004002 | 19.44° C | 57% | 1013.4 hPa | 0 mm | - | - | - |
| 1778003401 | 19.44° C | 56% | 1013.6 hPa | 0 mm | - | - | - |
| 1778002800 | 19.44° C | 58% | 1013.6 hPa | 0 mm | - | - | - |
| 1778002201 | 18.89° C | 58% | 1013.7 hPa | 0 mm | - | - | - |
| 1778001601 | 19.44° C | 58% | 1013.7 hPa | 0 mm | - | - | - |
| 1778001001 | 19.44° C | 57% | 1013.7 hPa | 0 mm | - | - | - |
| 1778000402 | 18.89° C | 59% | 1013.7 hPa | 0 mm | - | - | - |
| 1777999800 | 18.89° C | 61% | 1013.6 hPa | 0 mm | - | - | - |
| 1777999201 | 18.33° C | 61% | 1013.6 hPa | 0 mm | - | - | - |
| 1777998601 | 17.78° C | 63% | 1013.6 hPa | 0 mm | - | - | - |
| 1777998000 | 17.78° C | 66% | 1013.6 hPa | 0 mm | - | - | - |
| 1777997400 | 17.78° C | 70% | 1013.7 hPa | 0 mm | - | - | - |
| 1777996802 | 17.22° C | 73% | 1013.8 hPa | 0 mm | - | - | - |
| 1777996201 | 17.22° C | 71% | 1013.6 hPa | 0 mm | - | - | - |
| 1777995601 | 17.22° C | 75% | 1013.7 hPa | 0 mm | - | - | - |
| 1777995001 | 16.67° C | 75% | 1013.5 hPa | 0 mm | - | - | - |
| 1777994400 | 16.67° C | 76% | 1013.5 hPa | 0 mm | - | - | - |
| 1777993801 | 16.11° C | 82% | 1013.5 hPa | 0 mm | - | - | - |
| 1777993200 | 16.11° C | 82% | 1013.6 hPa | 0 mm | - | - | - |
| 1777992599 | 16.11° C | 81% | 1013.4 hPa | 0 mm | - | - | - |
| 1777991999 | 16.11° C | 84% | 1013.4 hPa | 0 mm | - | - | - |
| 1777991399 | 15.56° C | 86% | 1013.3 hPa | 0 mm | - | - | - |
* Rain latest hour (hover to see other rain measurements)
** Current wind speed in m/s (hover to see current wind gust speed)